Total_Precipitation_Accumulation
2.01 2.42 3.06 4.04 4.45 5.10 5.09 4.70 4.34 4.16 4.08 4.01 3.97 3.99 4.08 4.24 4.38 4.32 4.04 3.94 3.85 3.86 4.02 3.88 3.82 3.61 3.55 3.60 3.56 3.42 3.32 3.16 3.09 2.96 2.59 2.14 1.74 1.60 1.53 1.59 1.65 1.60 1.57
2.14 2.77 3.24 3.73 3.99 4.15 4.42 4.75 4.72 4.64 4.36 4.26 4.51 4.92 5.15 5.06 5.09 5.04 4.92 4.72 4.55 4.49 4.37 4.27 4.02 3.80 3.63 3.45 3.37 3.29 3.18 2.98 2.98 2.99 2.89 2.50 2.15 1.74 1.39 1.52 1.58 1.57 1.64
1.91 2.54 3.06 3.44 3.86 4.16 4.22 4.51 4.63 4.80 4.98 5.10 5.26 5.67 5.94 5.80 5.55 5.17 4.98 4.80 4.50 4.37 4.20 4.09 3.91 3.78 3.60 3.40 3.34 3.29 3.21 3.07 3.04 3.05 3.14 2.92 2.43 1.96 1.63 1.50 1.51 1.58 1.66
1.89 2.25 2.65 2.90 3.27 3.53 3.83 4.19 4.41 4.62 5.12 5.82 6.12 6.13 6.18 6.02 5.69 5.35 5.03 4.68 4.35 4.09 3.92 3.91 3.81 3.64 3.45 3.30 3.06 3.00 3.09 3.20 3.04 2.94 2.74 2.58 2.35 2.23 1.97 1.73 1.60 1.56 1.58
1.86 2.02 2.08 2.40 2.80 3.00 3.23 3.68 4.14 4.61 5.24 5.79 6.11 6.32 6.22 5.96 5.67 5.21 4.87 4.49 4.15 3.80 3.56 3.51 3.42 3.22 3.04 2.91 2.76 2.69 2.76 2.87 2.86 2.82 2.69 2.58 2.42 2.21 2.09 1.92 1.75 1.69 1.59
1.73 1.81 1.94 2.12 2.38 2.62 2.86 3.12 3.72 4.44 4.88 5.27 5.60 5.77 5.84 5.71 5.40 4.93 4.63 4.30 3.94 3.59 3.29 2.99 2.92 2.86 2.66 2.41 2.34 2.35 2.34 2.43 2.51 2.59 2.52 2.37 2.29 2.19 2.17 2.06 1.91 1.84 1.71
1.58 1.81 1.89 2.05 2.30 2.54 2.86 3.16 3.57 4.12 4.43 4.54 4.72 4.99 5.14 5.10 4.99 4.77 4.47 4.08 3.59 3.12 2.85 2.60 2.48 2.41 2.33 2.18 2.09 2.08 1.95 1.95 2.02 2.05 2.17 2.18 2.08 1.96 2.02 2.14 2.07 1.90 1.73
1.72 1.79 1.84 1.96 2.25 2.47 2.62 2.96 3.19 3.71 3.98 3.86 3.95 4.22 4.42 4.39 4.26 4.05 3.63 3.26 2.91 2.61 2.37 2.26 2.10 1.89 1.73 1.66 1.69 1.73 1.71 1.70 1.71 1.69 1.86 1.96 1.94 1.91 1.90 1.95 2.14 2.11 1.86
1.70 1.80 1.76 1.82 2.02 2.22 2.40 2.54 2.69 3.05 3.34 3.29 3.32 3.38 3.40 3.40 3.30 3.11 2.82 2.52 2.25 2.00 1.89 1.82 1.80 1.69 1.56 1.47 1.44 1.48 1.56 1.58 1.53 1.52 1.61 1.68 1.65 1.67 1.72 1.79 1.95 2.14 2.04
1.57 1.67 1.71 1.73 1.66 1.73 1.99 2.22 2.25 2.36 2.50 2.52 2.57 2.59 2.64 2.72 2.62 2.35 2.10 1.97 1.86 1.69 1.56 1.49 1.48 1.49 1.45 1.43 1.47 1.46 1.49 1.54 1.45 1.39 1.38 1.38 1.34 1.40 1.44 1.55 1.67 1.84 1.97
1.54 1.61 1.66 1.65 1.52 1.44 1.53 1.79 1.95 1.92 2.00 2.14 2.23 2.16 2.14 2.08 1.99 1.86 1.70 1.66 1.59 1.48 1.40 1.32 1.27 1.26 1.29 1.30 1.34 1.32 1.27 1.22 1.19 1.15 1.14 1.16 1.22 1.30 1.29 1.33 1.46 1.68 1.87
1.67 1.66 1.76 1.65 1.54 1.53 1.55 1.61 1.70 1.72 1.72 1.76 1.92 1.99 1.92 1.76 1.66 1.58 1.52 1.43 1.36 1.31 1.27 1.17 1.09 1.05 1.04 1.05 1.06 1.09 1.10 1.10 1.04 1.05 1.10 1.10 1.14 1.20 1.25 1.31 1.37 1.52 1.76
1.93 1.83 1.77 1.63 1.57 1.59 1.53 1.43 1.46 1.51 1.52 1.51 1.57 1.60 1.55 1.47 1.41 1.39 1.40 1.29 1.22 1.16 1.10 1.07 1.04 0.97 0.96 0.93 0.90 0.93 1.00 1.01 0.96 0.99 1.04 1.10 1.23 1.23 1.24 1.31 1.34 1.45 1.59
1.98 1.88 1.79 1.71 1.63 1.61 1.50 1.40 1.36 1.29 1.23 1.28 1.33 1.34 1.36 1.35 1.29 1.21 1.20 1.19 1.15 1.11 1.08 1.06 0.98 0.93 0.89 0.88 0.87 0.88 0.92 0.94 0.93 0.98 1.03 1.09 1.22 1.29 1.34 1.34 1.38 1.43 1.57
1.99 1.90 1.91 1.86 1.78 1.74 1.61 1.46 1.36 1.31 1.26 1.22 1.18 1.23 1.30 1.31 1.27 1.26 1.24 1.19 1.12 1.05 1.04 1.03 0.96 0.91 0.86 0.82 0.82 0.83 0.86 0.95 0.96 0.95 0.95 0.98 1.10 1.20 1.19 1.11 1.16 1.33 1.57
2.16 2.17 2.18 2.14 2.07 1.98 1.78 1.58 1.46 1.34 1.26 1.25 1.22 1.23 1.24 1.20 1.20 1.21 1.18 1.15 1.10 1.06 1.03 1.00 0.95 0.89 0.74 0.77 0.79 0.80 0.85 0.91 0.92 0.92 0.91 0.85 0.84 0.83 0.85 0.90 0.96 1.11 1.40
2.48 2.54 2.49 2.40 2.28 2.15 2.05 1.84 1.66 1.51 1.44 1.37 1.27 1.25 1.22 1.13 1.09 1.03 1.02 1.09 1.09 1.04 0.97 0.91 0.92 0.88 0.79 0.74 0.69 0.74 0.83 0.90 0.95 0.99 0.97 0.76 0.65 0.75 0.82 0.87 0.92 1.04 1.23
2.37 2.42 2.39 2.40 2.31 2.18 2.06 1.87 1.68 1.55 1.43 1.32 1.22 1.17 1.15 1.10 1.08 1.06 1.07 1.08 1.06 1.01 1.01 0.97 0.96 0.95 0.80 0.72 0.66 0.71 0.77 0.88 0.91 0.92 0.95 0.95 0.87 0.82 0.91 0.97 1.04 1.15 1.28
2.24 2.28 2.34 2.37 2.34 2.21 2.01 1.84 1.69 1.52 1.43 1.32 1.14 1.05 1.02 0.97 0.97 1.01 1.04 1.01 1.01 0.97 0.94 0.94 0.95 1.00 0.91 0.77 0.70 0.66 0.73 0.83 0.84 0.81 0.81 0.81 0.83 0.91 1.08 1.19 1.38 1.48 1.58
2.17 2.27 2.37 2.41 2.34 2.22 1.92 1.76 1.62 1.44 1.25 1.08 0.97 0.94 0.95 0.88 0.88 0.91 0.91 0.89 0.90 0.91 0.87 0.86 0.90 0.93 0.85 0.71 0.60 0.57 0.64 0.78 0.82 0.85 0.83 0.76 0.71 0.83 1.01 1.25 1.56 1.70 1.76
2.12 2.20 2.21 2.21 2.16 2.06 1.82 1.70 1.53 1.37 1.11 0.92 0.84 0.87 0.88 0.82 0.78 0.81 0.83 0.83 0.79 0.83 0.85 0.81 0.82 0.77 0.65 0.58 0.50 0.49 0.54 0.66 0.77 0.83 0.89 0.85 0.78 0.83 1.04 1.25 1.45 1.62 1.66
1.89 2.00 2.07 2.05 1.92 1.79 1.64 1.52 1.39 1.15 0.95 0.85 0.81 0.85 0.86 0.66 0.57 0.68 0.72 0.73 0.79 0.79 0.81 0.82 0.75 0.64 0.58 0.49 0.45 0.46 0.47 0.51 0.68 0.86 0.88 0.88 0.83 0.88 1.07 1.22 1.47 1.69 1.77
1.63 1.68 1.61 1.53 1.55 1.49 1.37 1.26 1.14 0.97 0.85 0.81 0.83 0.82 0.78 0.70 0.63 0.65 0.66 0.71 0.76 0.73 0.69 0.72 0.70 0.59 0.55 0.50 0.44 0.45 0.49 0.52 0.60 0.76 0.84 0.85 0.85 0.98 1.27 1.43 1.60 1.76 1.88
1.29 1.31 1.28 1.20 1.17 1.16 1.08 0.99 0.86 0.82 0.82 0.84 0.83 0.82 0.78 0.69 0.63 0.64 0.59 0.61 0.64 0.64 0.61 0.62 0.64 0.60 0.57 0.50 0.46 0.50 0.56 0.60 0.63 0.74 0.88 0.96 1.00 1.15 1.45 1.66 1.84 1.90 1.82
1.01 1.01 1.06 1.01 0.89 0.83 0.82 0.79 0.72 0.71 0.79 0.81 0.76 0.75 0.66 0.62 0.61 0.56 0.45 0.42 0.43 0.44 0.50 0.56 0.56 0.54 0.51 0.47 0.49 0.50 0.52 0.57 0.60 0.68 0.87 1.05 1.16 1.33 1.53 1.71 1.78 1.77 1.66
0.87 0.93 0.96 0.90 0.81 0.75 0.71 0.67 0.59 0.60 0.71 0.75 0.73 0.67 0.60 0.56 0.52 0.55 0.46 0.37 0.34 0.33 0.31 0.34 0.35 0.38 0.44 0.46 0.47 0.47 0.49 0.53 0.60 0.68 0.89 1.04 1.13 1.30 1.51 1.65 1.62 1.53 1.44